COSMOS 1275 DEB, 42213

Orbit data source: Space-Track

COSMOS 1275 DEB, 42213 is space debris in LEO originally from a launch on Thu, 04 Jun 1981 UTC launched from the Plesetsk Missile And Space Complex (PKMTR). Debris objects in space refer to the collection of defunct objects orbiting the Earth. Examples of debris include non-operational satellites, rocket bodies, and fragments generated from explosions, collisions, or faulty payload assembly.

Loading next visibility...
Identifier
42213, 1981-053UD
Orbit
LEO
Country
Flag of CISCIS
Related business
Manufacturer
Unknown
Mission
Spacecraft
Bus & Motor
Unknown
Mass
Unknown
Launch date (UTC)
1981-06-04 (45 years ago)
Launch vehicle
Unknown
Launch site
Plesetsk Missile And Space Complex (PKMTR)
Object type
Payload
Rocket body
Debris
Shape & HBR
Unknown shape, 0.1 m
Radar Cross Section
Small (<0.1 m²)

Expand to show TLE details & history
Last TLE update: 1 week ago

TLE from 1 week ago
0 COSMOS 1275 DEB
1 42213U 81053UD  26025.19728139  .00007415  00000-0  32766-2 0  9997
2 42213  82.8189 190.8377 0045094 196.1510 163.8238 14.22592963183770
Epoch: 2026-01-25T04:44Z
TLE epoch observation values (Epoch: 2026-01-25T04:44:05.112Z)
Latitude
-0.00002°
Longitude
-4.69445°
Altitude
850.737 km
Speed
7.411 km/s
True Right ascension
12h 43m 21s
True Declination
0° 00' 00"
Sunlit
Object was in daylight at epoch
Visualization orbit readout
Latitude
Unknown
Longitude
Unknown
Altitude
Unknown
Speed
Unknown
Apparent Right ascension
Unknown
Apparent Declination
Unknown
Sunlit
N/A
Visualization observer readout
Local Sidereal Time
16:50:02
Azimuth
Unknown
Elevation
Unknown
Doppler factor
Unknown
Orbital elements
Apogee altitude
846.116 km
Perigee altitude
781.254 km
Semi-major axis
7,191.822 km
Eccentricity
0.00451
Inclination
82.8189°
RAAN
190.8377°
Arg. of periapsis
196.151°
True anomaly
163.96698°
Mean anomaly
163.8238°
Eccentric anomaly
163.89547°
Mean motion
3.55865 °/min
Orbital period
101.16 mins
BSTAR
0.0032766
Loading maneuver chart data...
Computing Atmospheric mass density...
Loading historical data...
Loading historical data...
Loading historical data...
Loading historical data...
Loading historical data...
Loading historical data...
Loading historical data...

Documentation

Showing up to 5 results
|